Location: Brachbach
(49.1847°N, 9.7240°E)
Time: 07:52:43
(UTC+00:00)

FO-29 - Pass Details

Date: 21 March 2026
Orbit: 801 x 1320 km, 98.5° (Epoch: 17 April)

Event Time Altitude Azimuth Distance (km) Brightness Sun altitude
Rises 20:45:34 0° 11° (NNE) 4,176 13.2 -29.3°
Reaches altitude 10° 20:48:14 10° 7° (N) 3,255 12.6 -29.6°
Maximum altitude 20:55:35 53° 294° (WNW) 1,579 10.8 -30.5°
Drops below altitude 10° 21:03:07 10° 221° (SW) 3,338 12.2 -31.4°
Sets 21:05:53 0° 217° (SW) 4,289 12.8 -31.7°
